sat.trackr.live / text

‹ back to catalog

STARLINK-6375

NORAD 57342 · 2023-099Q

PAYLOAD ACTIVE UNKNOWN

§ Identity

Operator
Country
US
Launch date
2023-07-16
Launch site
AFETR
Launch vehicle
Mass (kg)
RCS (m²)

Purposes: comms

External: N2YO · Heavens-Above · Gunter

§ Orbital elements

Epoch: 2026-09-20T14:17:38.568192Z

Period
94.27 min
Inclination
43.0015°
Eccentricity
0.0001075
Mean motion
15.27576519 rev/d
Perigee alt
482.3 km
Apogee alt
483.8 km
Semi-major
6,861.2 km
B*
4.3138e-6
RAAN
228.3615°
Arg perigee
264.3934°
Mean anomaly
95.6795°
Rev number
17,592

§ Raw data

STARLINK-63751 57342U 23099Q   26263.59558528 -.00000143  00000+0  43138-5 0  99922 57342  43.0015 228.3615 0001075 264.3934  95.6795 15.27576519175920

JSON: /api/v1/satellites/57342 · /tle

For live sub-satellite position, see the globe view (requires WebGL).

§ Visibility from observer

Set your observer location to see the next 7 days of passes ≥ 10°. The values pass through the URL so the page stays shareable.

No JS? Fill the form by hand. The geolocation button needs JavaScript.